FW6082 Weather Reports


time (UTC)temp
C
wind
direction
speed
KPH
gust
KPH
rain 1hr
cm
rain 24hr
cm
rain mn
cm
humidity
%
barometer
mb
20260831041541 10 322 0.0 3.2 0.00 0.00 0.00 65 1019.3
20260831040037 10 98 0.0 3.2 0.00 0.00 0.00 65 1019.0
20260831034533 10 58 0.0 4.8 0.00 0.00 0.00 65 1019.0
20260831033043 10 253 1.6 8.0 0.00 0.00 0.00 66 1018.8
20260831031534 9 307 0.0 3.2 0.00 0.00 0.00 69 1018.6
20260831030030 8 307 0.0 0.0 0.00 0.00 0.00 70 1018.4
20260831024529 8 307 0.0 0.0 0.00 0.00 0.00 70 1018.2
20260831023035 8 307 0.0 0.0 0.00 0.00 0.00 68 1018.0
20260831021535 9 307 0.0 0.0 0.00 0.00 0.00 67 1017.9
20260831020051 9 307 0.0 1.6 0.00 0.00 0.00 66 1017.9
20260831014523 10 307 0.0 1.6 0.00 0.00 0.00 65 1017.7
20260831013021 10 307 0.0 11.3 0.00 0.00 0.00 64 1017.6
20260831011525 10 329 1.6 6.4 0.00 0.00 0.00 63 1017.4
20260831010019 10 82 0.0 8.0 0.00 0.00 0.00 64 1017.2
20260831004517 10 30 1.6 6.4 0.00 0.00 0.00 63 1017.0
20260831003014 11 262 3.2 14.5 0.00 0.00 0.00 63 1016.8
20260831001518 11 317 0.0 9.7 0.00 0.00 0.00 63 1016.6
20260831000019 11 228 4.8 19.3 0.00 0.00 0.00 63 1015.9
20260830234522 11 226 4.8 16.1 0.00 0.00 0.00 62 1015.6
20260830233013 12 272 8.0 22.5 0.00 0.00 0.00 62 1015.2
20260830231517 12 219 4.8 17.7 0.00 0.00 0.00 61 1015.0
20260830230012 12 214 4.8 16.1 0.00 0.00 0.00 60 1014.4
20260830224511 12 294 6.4 19.3 0.00 0.00 0.00 59 1014.3
20260830223011 13 233 4.8 19.3 0.00 0.00 0.00 57 1014.0
20260830221512 13 307 3.2 20.9 0.00 0.00 0.00 57 1013.7
20260830220008 13 257 6.4 20.9 0.00 0.00 0.00 57 1013.3
20260830214508 14 193 6.4 19.3 0.00 0.00 0.00 56 1013.1
20260830213007 15 308 6.4 17.7 0.00 0.00 0.00 54 1013.0
20260830211506 16 288 8.0 17.7 0.00 0.00 0.00 51 1012.9
20260830210018 16 290 4.8 17.7 0.00 0.00 0.00 48 1012.7
20260830204505 17 273 6.4 16.1 0.00 0.00 0.00 45 1012.7
20260830203004 18 315 4.8 19.3 0.00 0.00 0.00 42 1012.5
20260830201503 18 256 8.0 16.1 0.00 0.00 0.00 42 1012.5
20260830200002 18 267 8.0 16.1 0.00 0.00 0.00 40 1012.3
20260830194602 18 247 9.7 20.9 0.00 0.00 0.00 40 1012.3
20260830193059 18 232 6.4 14.5 0.00 0.00 0.00 40 1012.6
20260830191556 18 245 6.4 19.3 0.00 0.00 0.00 41 1012.6
20260830190056 18 259 8.0 17.7 0.00 0.00 0.00 41 1012.9
20260830184603 18 265 9.7 22.5 0.00 0.00 0.00 42 1013.0
20260830183054 18 253 6.4 24.1 0.00 0.00 0.00 42 1013.1
20260830181550 17 303 8.0 19.3 0.00 0.00 0.00 43 1013.5
20260830180047 17 257 8.0 17.7 0.00 0.00 0.00 43 1013.9
20260830174547 17 273 8.0 19.3 0.00 0.00 0.00 44 1014.0
20260830173044 17 230 8.0 16.1 0.00 0.00 0.00 44 1014.2
20260830171543 17 280 9.7 20.9 0.00 0.00 0.00 46 1014.2
20260830170042 17 261 8.0 17.7 0.00 0.00 0.00 46 1014.6
20260830164542 17 261 6.4 20.9 0.00 0.00 0.00 46 1014.8
20260830163036 17 263 3.2 14.5 0.00 0.00 0.00 48 1015.1
20260830161551 16 273 6.4 14.5 0.00 0.00 0.00 49 1015.1
20260830160035 16 223 4.8 14.5 0.00 0.00 0.00 50 1015.5
20260830154535 16 315 3.2 12.9 0.00 0.00 0.00 52 1015.6
20260830153038 15 261 1.6 12.9 0.00 0.00 0.00 51 1015.8
20260830151521 15 221 4.8 16.1 0.00 0.00 0.00 51 1016.0
20260830150021 15 285 4.8 16.1 0.00 0.00 0.00 52 1016.1
20260830144515 14 223 1.6 6.4 0.00 0.00 0.00 56 1016.1
20260830143021 13 45 0.0 4.8 0.00 0.00 0.00 59 1016.3
20260830141510 12 44 0.0 3.2 0.00 0.00 0.00 62 1016.5
20260830140003 12 44 0.0 3.2 0.00 0.00 0.00 64 1016.6
20260830134700 12 45 0.0 3.2 0.00 0.00 0.00 66 1016.6
20260830133055 11 45 0.0 1.6 0.00 0.00 0.00 71 1016.7
20260830131551 9 44 0.0 1.6 0.00 0.00 0.00 78 1016.7
20260830130105 7 44 0.0 1.6 0.00 0.00 0.00 86 1016.7
20260830124545 5 44 0.0 0.0 0.00 0.00 0.00 87 1016.8
20260830123043 5 44 0.0 0.0 0.00 0.00 0.00 87 1016.7
20260830121542 4 44 0.0 0.0 0.00 0.00 0.00 86 1016.6
20260830120047 4 44 0.0 0.0 0.00 0.00 0.00 86 1016.5
20260830114604 4 44 0.0 0.0 0.00 0.00 0.00 86 1016.4
20260830113033 5 44 0.0 0.0 0.00 0.00 0.00 86 1016.3
20260830111531 5 359 0.0 0.0 0.00 0.00 0.00 86 1016.1
20260830110030 5 359 0.0 0.0 0.00 0.00 0.00 85 1015.8
20260830104529 5 359 0.0 0.0 0.00 0.00 0.00 86 1015.7
20260830103026 5 359 0.0 1.6 0.00 0.00 0.00 86 1015.5
20260830101524 5 359 0.0 0.0 0.00 0.00 0.00 85 1015.3
20260830100021 5 359 0.0 0.0 0.00 0.00 0.00 84 1015.1
20260830094519 5 359 0.0 0.0 0.00 0.00 0.00 83 1015.0
20260830093019 6 359 0.0 0.0 0.00 0.00 0.00 82 1014.6
20260830091515 6 359 0.0 3.2 0.00 0.00 0.00 81 1014.5
20260830090019 7 330 0.0 0.0 0.00 0.00 0.00 80 1014.4
20260830084515 7 330 0.0 3.2 0.00 0.00 0.00 81 1014.1
20260830083016 7 340 0.0 3.2 0.00 0.00 0.00 79 1014.1
20260830081513 7 340 0.0 3.2 0.00 0.00 0.00 79 1014.0
20260830080013 7 308 1.6 6.4 0.00 0.00 0.00 80 1014.0
20260830074513 7 345 0.0 4.8 0.00 0.00 0.00 83 1013.9
20260830073013 6 22 0.0 3.2 0.00 0.00 0.00 83 1013.7
20260830071512 6 22 0.0 1.6 0.00 0.00 0.00 83 1013.7
20260830070014 6 22 0.0 3.2 0.00 0.00 0.00 83 1013.8
20260830064507 6 22 0.0 3.2 0.00 0.00 0.00 84 1013.9
20260830063006 6 22 0.0 0.0 0.00 0.00 0.00 83 1014.0
20260830061504 6 22 0.0 0.0 0.00 0.00 0.00 83 1014.2
20260830060003 6 22 0.0 0.0 0.00 0.00 0.00 83 1014.3
20260830054500 6 29 0.0 1.6 0.00 0.00 0.00 82 1014.2
20260830053106 6 24 0.0 1.6 0.00 0.00 0.00 83 1014.4
20260830051601 6 24 0.0 0.0 0.00 0.00 0.00 80 1014.5
20260830050104 6 24 0.0 1.6 0.00 0.00 0.00 80 1014.6
20260830044607 6 24 1.6 3.2 0.00 0.00 0.00 81 1014.7
20260830043057 7 301 0.0 0.0 0.00 0.00 0.00 79 1014.7